This demonstration page uses our WeatherBlox Daily Observations layout. Learn more.

41.55636, -103.73856

Hourly Observations for April 25, 2015

Temp ( °F °C ) Dew Point ( °F °C ) Humidity (%) Winds ( mph kmh ) Pressure ( in mb ) Visibility ( mi km ) Precip ( " mm )
12:53 am 00:53 Clear 43 6.1 40 4.4 89 89 WNW 6 9 29.57 1001 10 16.0934 0 0
1:53 am 01:53 Clear 44 6.7 40 4.4 85 85 NW 8 13 29.56 1001 10 16.0934 0 0
2:53 am 02:53 Clear 43 6.1 41 5 93 93 NW 9 15 29.58 1002 10 16.0934 0 0
3:53 am 03:53 Clear 41 5 39 3.9 93 93 NW 8 13 29.6 1002 10 16.0934 0 0
4:53 am 04:53 Clear 39 4 N/A N/A NW 8 13 29.61 1003 10 16.0934 0 0
5:53 am 05:53 Clear 39 4 N/A N/A undefined N/A 29.64 1004 10 16.0934 0 0
6:53 am 06:53 Sunny 43 6 N/A N/A NW 3 6 29.66 1005 10 16.0934 0 0
7:53 am 07:53 Sunny 48 9 N/A N/A NNW 6 9 29.67 1005 10 16.0934 0 0
8:53 am 08:53 Sunny 55 13 N/A N/A Calm 29.66 1004 10 16.0934 0 0
9:53 am 09:53 Sunny 57 14 N/A N/A VRB 5 7 29.65 1004 10 16.0934 0 0
10:53 am 10:53 Sunny 62 16.7 43 6.1 50 50 SE 6 9 29.65 1004 10 16.0934 0 0
11:53 am 11:53 Sunny 67 19.4 41 5 39 39 VRB 3 6 29.62 1003 10 16.0934 0 0
12:53 pm 12:53 Mostly Sunny 68 20 37 2.8 32 32 WSW 7 11 29.62 1003 8 12.87472 0 0
1:53 pm 13:53 Sunny 71 21.7 37 2.8 29 29 NW 9 15 29.6 1002 10 16.0934 0 0
2:53 pm 14:53 Sunny 68 20 37 2.8 32 32 VRB 6 9 29.6 1002 10 16.0934 0 0
3:26 pm 15:26 Mostly Cloudy with Nearby Thunderstorms 63 17 39 4 42 42 SSW 15 24 29.56 1001 10 16.0934 0 0
3:36 pm 15:36 Cloudy 61 16 39 4 45 45 S 16 26 29.56 1001 10 16.0934 0 0
3:53 pm 15:53 Cloudy with Light Rain 60 15.6 42 5.6 52 52 S 18 30 29.65 1004 10 16.0934 0 0.0254
4:53 pm 16:53 Mostly Cloudy 63 17.2 42 5.6 47 47 S 8 13 29.64 1004 10 16.0934 0 0.0254
5:53 pm 17:53 Mostly Sunny 60 15.6 39 3.9 46 46 WSW 15 24 29.68 1005 10 16.0934 0 0
6:53 pm 18:53 Cloudy 58 14.4 39 3.9 50 50 WSW 14 22 29.68 1005 10 16.0934 0 0
7:53 pm 19:53 Cloudy with Light Rain 55 12.8 45 7.2 69 69 SE 3 6 29.71 1006 10 16.0934 0 0.0254
8:53 pm 20:53 Cloudy 53 11.7 47 8.3 80 80 E 8 13 29.69 1006 10 16.0934 0.01 0.254
9:53 pm 21:53 Mostly Cloudy 52 11.1 47 8.3 83 83 E 7 11 29.73 1007 10 16.0934 0 0
10:53 pm 22:53 Cloudy with Light Rain 52 11.1 47 8.3 83 83 VRB 7 11 29.75 1008 10 16.0934 0 0.0254
11:53 pm 23:53 Cloudy with Light Rain 51 10.6 47 8.3 86 86 SE 10 17 29.76 1008 10 16.0934 0.02 0.508

Powered by AerisWeather